sat.trackr.live / text

‹ back to catalog

ONEWEB-0220

NORAD 48232 · 2021-031Y

PAYLOAD ACTIVE UNKNOWN

§ Identity

Operator
Country
UK
Launch date
2021-04-25
Launch site
VOSTO
Launch vehicle
Mass (kg)
RCS (m²)

Purposes: comms

External: N2YO · Heavens-Above · Gunter

§ Orbital elements

Epoch: 2026-09-19T18:52:21.239616Z

Period
109.55 min
Inclination
87.8899°
Eccentricity
0.0001781
Mean motion
13.14499480 rev/d
Perigee alt
1,204.5 km
Apogee alt
1,207.2 km
Semi-major
7,583.9 km
B*
7.9618e-4
RAAN
270.8352°
Arg perigee
97.1424°
Mean anomaly
262.9909°
Rev number
26,083

§ Raw data

ONEWEB-02201 48232U 21031Y   26262.78635694  .00000308  00000+0  79618-3 0  99962 48232  87.8899 270.8352 0001781  97.1424 262.9909 13.14499480260830

JSON: /api/v1/satellites/48232 · /tle

For live sub-satellite position, see the globe view (requires WebGL).

§ Visibility from observer

Set your observer location to see the next 7 days of passes ≥ 10°. The values pass through the URL so the page stays shareable.

No JS? Fill the form by hand. The geolocation button needs JavaScript.